Time,TemperatureF,DewpointF,PressureIn,WindDirection,WindDirectionDegrees,WindSpeedMPH,WindSpeedGustMPH,Humidity,HourlyPrecipIn,Conditions,Clouds,dailyrainin,SoftwareType,DateUTC
2013-05-24 00:04:00,48.6,39.3,30.29,ESE,103,0.0,1.0,70,0.00,,CLR,0.00,VWS V14.01,2013-05-24 05:04:00,
2013-05-24 00:15:00,47.6,39.4,30.30,ESE,103,0.0,0.0,73,0.00,,CLR,0.00,VWS V14.01,2013-05-24 05:15:00,
2013-05-24 01:14:00,47.3,38.0,30.30,ESE,103,6.0,6.3,70,0.00,,CLR,0.00,VWS V14.01,2013-05-24 06:14:00,
2013-05-24 01:44:00,46.7,38.2,30.30,East,100,3.0,6.3,72,0.00,,CLR,0.00,VWS V14.01,2013-05-24 06:44:00,
2013-05-24 07:20:00,47.2,38.7,30.30,ESE,120,12.0,15.7,72,0.00,,CLR,0.00,VWS V14.01,2013-05-24 12:20:00,
2013-05-24 07:25:00,47.3,38.0,30.31,SE,128,13.0,16.8,70,0.00,,CLR,0.00,VWS V14.01,2013-05-24 12:25:00,
2013-05-24 07:30:00,47.3,38.4,30.30,ESE,107,10.0,16.8,71,0.00,,CLR,0.00,VWS V14.01,2013-05-24 12:30:00,
2013-05-24 07:40:00,48.1,38.4,30.30,ESE,120,14.0,18.9,69,0.00,,CLR,0.00,VWS V14.01,2013-05-24 12:40:00,
2013-05-24 07:45:00,48.6,38.9,30.30,ESE,119,13.0,16.8,69,0.00,,CLR,0.00,VWS V14.01,2013-05-24 12:45:00,
2013-05-24 07:55:00,49.5,39.4,30.31,ESE,117,12.0,17.8,68,0.00,,CLR,0.00,VWS V14.01,2013-05-24 12:55:00,
2013-05-24 08:00:00,50.0,39.5,30.31,ESE,123,13.0,16.8,67,0.00,,CLR,0.00,VWS V14.01,2013-05-24 13:00:00,
2013-05-24 08:05:00,50.6,38.9,30.31,SE,128,13.0,18.9,64,0.00,,CLR,0.00,VWS V14.01,2013-05-24 13:05:00,
2013-05-24 08:15:00,51.1,39.0,30.30,SE,145,17.0,21.0,63,0.00,,CLR,0.00,VWS V14.01,2013-05-24 13:15:00,
2013-05-24 08:20:00,51.5,38.9,30.31,SSE,150,12.0,19.9,62,0.00,,CLR,0.00,VWS V14.01,2013-05-24 13:20:00,
2013-05-24 08:25:00,52.1,39.9,30.31,SE,137,14.0,18.9,63,0.00,,CLR,0.00,VWS V14.01,2013-05-24 13:25:00,
2013-05-24 08:35:00,52.6,39.5,30.31,SE,136,17.0,21.0,61,0.00,,CLR,0.00,VWS V14.01,2013-05-24 13:35:00,
2013-05-24 08:40:00,52.8,40.2,30.30,SSE,148,17.0,19.9,62,0.00,,CLR,0.00,VWS V14.01,2013-05-24 13:40:00,
2013-05-24 08:50:00,53.5,40.4,30.30,SSE,148,16.0,19.9,61,0.00,,CLR,0.00,VWS V14.01,2013-05-24 13:50:00,
2013-05-24 08:55:00,53.9,39.9,30.30,SSE,155,10.0,21.0,59,0.00,,CLR,0.00,VWS V14.01,2013-05-24 13:55:00,
2013-05-24 09:00:00,54.5,40.9,30.30,SSE,149,17.0,18.9,60,0.00,,CLR,0.00,VWS V14.01,2013-05-24 14:00:00,
2013-05-24 09:05:00,54.6,40.1,30.31,SE,144,19.0,21.0,58,0.00,,CLR,0.00,VWS V14.01,2013-05-24 14:05:00,
2013-05-24 09:15:00,55.3,40.8,30.30,SSE,157,16.0,18.9,58,0.00,,CLR,0.00,VWS V14.01,2013-05-24 14:15:00,
2013-05-24 09:20:00,55.6,40.6,30.30,SE,130,17.0,21.0,57,0.00,,CLR,0.00,VWS V14.01,2013-05-24 14:20:00,
2013-05-24 09:25:00,56.1,41.1,30.30,SE,140,17.0,21.0,57,0.00,,CLR,0.00,VWS V14.01,2013-05-24 14:25:00,
2013-05-24 09:35:00,56.8,40.3,30.30,SSE,163,14.0,21.0,54,0.00,,CLR,0.00,VWS V14.01,2013-05-24 14:35:00,
2013-05-24 09:45:00,57.5,40.0,30.30,SSE,153,14.0,21.0,52,0.00,,CLR,0.00,VWS V14.01,2013-05-24 14:45:00,
2013-05-24 09:50:00,58.0,41.5,30.29,SE,136,13.0,19.9,54,0.00,,CLR,0.00,VWS V14.01,2013-05-24 14:50:00,
2013-05-24 09:55:00,58.4,40.4,30.29,SE,133,19.0,19.9,51,0.00,,CLR,0.00,VWS V14.01,2013-05-24 14:55:00,
2013-05-24 10:05:00,59.0,40.4,30.29,SSE,149,15.0,25.2,50,0.00,,CLR,0.00,VWS V14.01,2013-05-24 15:05:00,
2013-05-24 10:15:00,59.8,40.6,30.29,SSE,150,19.0,27.3,49,0.00,,CLR,0.00,VWS V14.01,2013-05-24 15:15:00,
2013-05-24 10:20:00,60.0,40.8,30.29,SSE,148,17.0,24.1,49,0.00,,CLR,0.00,VWS V14.01,2013-05-24 15:20:00,
2013-05-24 10:25:00,60.6,41.9,30.29,SSE,163,20.0,23.1,50,0.00,,CLR,0.00,VWS V14.01,2013-05-24 15:25:00,
2013-05-24 10:35:00,60.2,39.9,30.29,SSE,153,17.0,26.2,47,0.00,,CLR,0.00,VWS V14.01,2013-05-24 15:35:00,
2013-05-24 10:40:00,60.4,40.6,30.28,SE,131,15.0,31.5,48,0.00,,CLR,0.00,VWS V14.01,2013-05-24 15:40:00,
2013-05-24 10:45:00,60.8,41.5,30.28,SSE,153,16.0,27.3,49,0.00,,CLR,0.00,VWS V14.01,2013-05-24 15:45:00,
2013-05-24 10:50:00,60.7,39.8,30.28,SSE,161,13.0,27.3,46,0.00,,CLR,0.00,VWS V14.01,2013-05-24 15:50:00,
2013-05-24 10:55:00,60.8,40.5,30.28,SE,127,21.0,25.2,47,0.00,,CLR,0.00,VWS V14.01,2013-05-24 15:55:00,
2013-05-24 11:05:00,60.4,39.5,30.27,SE,134,15.0,22.0,46,0.00,,CLR,0.00,VWS V14.01,2013-05-24 16:05:00,
2013-05-24 11:15:00,61.1,39.6,30.26,South,169,20.0,21.0,45,0.00,,CLR,0.00,VWS V14.01,2013-05-24 16:15:00,
2013-05-24 11:20:00,61.1,40.7,30.26,SSE,156,12.0,25.2,47,0.00,,CLR,0.00,VWS V14.01,2013-05-24 16:20:00,
2013-05-24 11:30:00,62.0,40.4,30.25,SSE,148,17.0,29.4,45,0.00,,CLR,0.00,VWS V14.01,2013-05-24 16:30:00,
2013-05-24 11:40:00,62.6,39.8,30.25,SSE,148,14.0,25.2,43,0.00,,CLR,0.00,VWS V14.01,2013-05-24 16:40:00,
2013-05-24 11:45:00,62.9,40.7,30.25,SE,137,14.0,25.2,44,0.00,,CLR,0.00,VWS V14.01,2013-05-24 16:45:00,
2013-05-24 11:50:00,63.6,40.1,30.25,SSE,158,14.0,25.2,42,0.00,,CLR,0.00,VWS V14.01,2013-05-24 16:50:00,
2013-05-24 11:55:00,64.1,41.8,30.25,SSE,165,17.0,24.1,44,0.00,,CLR,0.00,VWS V14.01,2013-05-24 16:55:00,
2013-05-24 12:00:00,64.2,40.7,30.25,SE,145,15.0,23.1,42,0.00,,CLR,0.00,VWS V14.01,2013-05-24 17:00:00,
2013-05-24 12:05:00,64.4,41.4,30.25,SE,129,13.0,27.3,43,0.00,,CLR,0.00,VWS V14.01,2013-05-24 17:05:00,
2013-05-24 12:10:00,64.8,40.6,30.25,SE,137,26.0,27.3,41,0.00,,CLR,0.00,VWS V14.01,2013-05-24 17:10:00,
2013-05-24 12:15:00,64.7,41.1,30.25,SSE,147,16.0,27.3,42,0.00,,CLR,0.00,VWS V14.01,2013-05-24 17:15:00,
2013-05-24 12:20:00,64.9,41.3,30.24,SSE,163,14.0,30.4,42,0.00,,CLR,0.00,VWS V14.01,2013-05-24 17:20:00,
2013-05-24 12:25:00,65.6,40.7,30.23,ESE,117,18.0,27.3,40,0.00,,CLR,0.00,VWS V14.01,2013-05-24 17:25:00,
2013-05-24 12:30:00,65.6,40.7,30.23,ESE,123,16.0,28.3,40,0.00,,CLR,0.00,VWS V14.01,2013-05-24 17:30:00,
2013-05-24 12:35:00,65.3,39.7,30.22,SE,142,16.0,24.1,39,0.00,,CLR,0.00,VWS V14.01,2013-05-24 17:35:00,
2013-05-24 12:45:00,65.2,39.6,30.22,SE,138,21.0,29.4,39,0.00,,CLR,0.00,VWS V14.01,2013-05-24 17:45:00,
2013-05-24 12:50:00,65.6,38.7,30.22,SSE,159,19.0,26.2,37,0.00,,CLR,0.00,VWS V14.01,2013-05-24 17:50:00,
2013-05-24 12:55:00,65.6,38.7,30.22,SE,141,18.0,24.1,37,0.00,,CLR,0.00,VWS V14.01,2013-05-24 17:55:00,
2013-05-24 13:00:00,65.9,38.2,30.22,SE,142,17.0,25.2,36,0.00,,CLR,0.00,VWS V14.01,2013-05-24 18:00:00,
2013-05-24 13:05:00,66.1,40.5,30.22,SSE,150,17.0,23.1,39,0.00,,CLR,0.00,VWS V14.01,2013-05-24 18:05:00,
2013-05-24 13:15:00,66.7,39.6,30.21,SE,130,16.0,24.1,37,0.00,,CLR,0.00,VWS V14.01,2013-05-24 18:15:00,
2013-05-24 13:20:00,67.2,39.4,30.20,SSE,149,23.0,29.4,36,0.00,,CLR,0.00,VWS V14.01,2013-05-24 18:20:00,
2013-05-24 13:25:00,67.1,40.0,30.20,SE,126,15.0,27.3,37,0.00,,SCT100,0.00,VWS V14.01,2013-05-24 18:25:00,
2013-05-24 13:30:00,67.9,37.8,30.20,SSE,163,21.0,29.4,33,0.00,,SCT100,0.00,VWS V14.01,2013-05-24 18:30:00,
2013-05-24 13:40:00,67.6,39.7,30.19,SE,145,20.0,25.2,36,0.00,,SCT100,0.00,VWS V14.01,2013-05-24 18:40:00,
2013-05-24 13:45:00,67.5,38.9,30.18,SSE,159,19.0,27.3,35,0.00,,SCT100,0.00,VWS V14.01,2013-05-24 18:45:00,
2013-05-24 13:50:00,68.1,40.9,30.18,SE,142,16.0,25.2,37,0.00,,SCT100,0.00,VWS V14.01,2013-05-24 18:50:00,
2013-05-24 13:55:00,68.4,40.4,30.18,ESE,120,18.0,28.3,36,0.00,,SCT100,0.00,VWS V14.01,2013-05-24 18:55:00,
2013-05-24 14:05:00,68.5,39.8,30.18,SE,139,20.0,24.1,35,0.00,,SCT110,0.00,VWS V14.01,2013-05-24 19:05:00,
2013-05-24 14:10:00,69.5,40.7,30.17,SSE,152,20.0,27.3,35,0.00,,SCT110,0.00,VWS V14.01,2013-05-24 19:10:00,
2013-05-24 14:15:00,69.2,40.4,30.17,SE,127,21.0,29.4,35,0.00,,SCT110,0.00,VWS V14.01,2013-05-24 19:15:00,
2013-05-24 14:25:00,69.6,40.0,30.17,SSE,168,17.0,29.4,34,0.00,,SCT100,0.00,VWS V14.01,2013-05-24 19:25:00,
2013-05-24 14:30:00,69.3,39.8,30.17,SSE,160,15.0,29.4,34,0.00,,SCT100,0.00,VWS V14.01,2013-05-24 19:30:00,
2013-05-24 14:35:00,69.7,39.3,30.17,South,175,16.0,23.1,33,0.00,,SCT100,0.00,VWS V14.01,2013-05-24 19:35:00,
2013-05-24 14:40:00,69.6,38.5,30.17,SE,138,21.0,27.3,32,0.00,,SCT100,0.00,VWS V14.01,2013-05-24 19:40:00,
2013-05-24 14:45:00,69.0,38.7,30.17,SE,133,22.0,29.4,33,0.00,,OVC100,0.00,VWS V14.01,2013-05-24 19:45:00,
2013-05-24 14:50:00,68.6,38.4,30.17,SSE,161,16.0,32.5,33,0.00,,OVC100,0.00,VWS V14.01,2013-05-24 19:50:00,
2013-05-24 14:55:00,68.6,39.1,30.17,SE,144,13.0,24.1,34,0.00,,OVC100,0.00,VWS V14.01,2013-05-24 19:55:00,
2013-05-24 15:00:00,68.4,39.0,30.17,SSE,167,10.0,25.2,34,0.00,,OVC100,0.00,VWS V14.01,2013-05-24 20:00:00,
2013-05-24 15:10:00,68.3,40.3,30.16,SE,142,15.0,23.1,36,0.00,,OVC100,0.00,VWS V14.01,2013-05-24 20:10:00,
2013-05-24 15:20:00,69.3,40.5,30.15,SSE,151,14.0,24.1,35,0.00,,OVC100,0.00,VWS V14.01,2013-05-24 20:20:00,
2013-05-24 15:25:00,69.2,39.7,30.16,SE,144,19.0,24.1,34,0.00,,-RA,0.00,VWS V14.01,2013-05-24 20:25:00,
2013-05-24 15:30:00,68.8,39.3,30.15,SSE,155,21.0,25.2,34,0.00,,-RA,0.00,VWS V14.01,2013-05-24 20:30:00,
2013-05-24 15:35:00,68.6,39.9,30.16,South,184,14.0,24.1,35,0.00,,-RA,0.00,VWS V14.01,2013-05-24 20:35:00,
2013-05-24 15:40:00,68.5,39.8,30.16,SSE,154,10.0,17.8,35,0.00,,-RA,0.00,VWS V14.01,2013-05-24 20:40:00,
2013-05-24 15:50:00,67.9,42.1,30.15,SE,138,11.0,18.9,39,0.00,,OVC090,0.00,VWS V14.01,2013-05-24 20:50:00,
2013-05-24 16:00:00,66.3,45.5,30.18,South,173,8.0,12.6,47,0.00,,OVC090,0.00,VWS V14.01,2013-05-24 21:00:00,
2013-05-24 16:10:00,66.0,45.2,30.19,South,170,7.0,10.5,47,0.00,,OVC090,0.00,VWS V14.01,2013-05-24 21:10:00,
2013-05-24 16:15:00,66.0,43.5,30.19,SE,146,6.0,11.5,44,0.00,,OVC090,0.00,VWS V14.01,2013-05-24 21:15:00,
2013-05-24 16:25:00,66.6,44.6,30.20,South,169,5.0,12.6,45,0.00,,RA,0.00,VWS V14.01,2013-05-24 21:25:00,
2013-05-24 16:35:00,66.9,43.1,30.20,SSE,167,9.0,11.5,42,0.00,,RA,0.00,VWS V14.01,2013-05-24 21:35:00,
2013-05-24 16:40:00,67.0,43.8,30.20,SSE,150,9.0,11.5,43,0.00,,RA,0.00,VWS V14.01,2013-05-24 21:40:00,
2013-05-24 16:45:00,66.7,44.1,30.19,SSE,150,11.0,15.7,44,0.00,,OVC090,0.00,VWS V14.01,2013-05-24 21:45:00,
2013-05-24 16:50:00,66.3,44.3,30.19,SE,138,12.0,17.8,45,0.00,,OVC090,0.00,VWS V14.01,2013-05-24 21:50:00,
2013-05-24 17:00:00,65.5,45.3,30.18,ESE,121,10.0,14.7,48,0.00,,OVC090,0.00,VWS V14.01,2013-05-24 22:00:00,
2013-05-24 17:10:00,63.9,47.9,30.16,ESE,122,11.0,15.7,56,0.00,,OVC090,0.00,VWS V14.01,2013-05-24 22:10:00,
2013-05-24 17:15:00,63.1,49.9,30.15,ESE,116,8.0,14.7,62,0.01,,OVC090,0.01,VWS V14.01,2013-05-24 22:15:00,
2013-05-24 17:20:00,61.9,50.8,30.15,SE,128,7.0,12.6,67,0.02,,OVC090,0.02,VWS V14.01,2013-05-24 22:20:00,
2013-05-24 17:30:00,60.7,51.2,30.15,ESE,119,8.0,10.5,71,0.05,,OVC110,0.05,VWS V14.01,2013-05-24 22:30:00,
2013-05-24 17:35:00,60.3,50.9,30.15,ESE,117,8.0,9.4,71,0.06,,OVC110,0.06,VWS V14.01,2013-05-24 22:35:00,
2013-05-24 17:45:00,60.4,51.3,30.15,ESE,114,7.0,9.4,72,0.06,,OVC110,0.06,VWS V14.01,2013-05-24 22:45:00,
2013-05-24 17:55:00,60.4,51.3,30.14,ESE,117,8.0,9.4,72,0.06,,OVC110,0.06,VWS V14.01,2013-05-24 22:55:00,
2013-05-24 18:00:00,60.6,51.9,30.14,SE,128,5.0,9.4,73,0.06,,OVC110,0.06,VWS V14.01,2013-05-24 23:00:00,
2013-05-24 18:05:00,60.6,51.5,30.14,ESE,111,6.0,9.4,72,0.06,,OVC100,0.06,VWS V14.01,2013-05-24 23:05:00,
2013-05-24 18:10:00,60.7,51.6,30.15,ESE,123,5.0,8.4,72,0.06,,OVC100,0.06,VWS V14.01,2013-05-24 23:10:00,
2013-05-24 18:20:00,60.6,51.9,30.13,ESE,113,8.0,9.4,73,0.05,,OVC100,0.06,VWS V14.01,2013-05-24 23:20:00,
2013-05-24 18:25:00,60.4,51.7,30.14,ESE,121,4.0,8.4,73,0.04,,-RA,0.06,VWS V14.01,2013-05-24 23:25:00,
2013-05-24 18:30:00,60.4,51.3,30.13,ESE,119,4.0,9.4,72,0.02,,-RA,0.06,VWS V14.01,2013-05-24 23:30:00,
2013-05-24 18:35:00,60.7,51.2,30.13,SE,124,5.0,11.5,71,0.01,,-RA,0.06,VWS V14.01,2013-05-24 23:35:00,
2013-05-24 18:40:00,60.9,51.5,30.13,ESE,120,5.0,10.5,71,0.00,,-RA,0.06,VWS V14.01,2013-05-24 23:40:00,
2013-05-24 18:45:00,60.8,52.1,30.13,SE,131,9.0,11.5,73,0.00,,OVC100,0.06,VWS V14.01,2013-05-24 23:45:00,
2013-05-24 18:50:00,60.7,52.0,30.14,SE,126,9.0,13.6,73,0.00,,OVC100,0.06,VWS V14.01,2013-05-24 23:50:00,
2013-05-24 19:00:00,60.4,52.8,30.13,ESE,108,10.0,12.6,76,0.00,,OVC100,0.06,VWS V14.01,2013-05-25 00:00:00,
2013-05-24 19:05:00,60.5,51.8,30.12,ESE,105,10.0,14.7,73,0.00,,OVC065,0.06,VWS V14.01,2013-05-25 00:05:00,
2013-05-24 19:10:00,60.5,51.8,30.12,ESE,104,13.0,15.7,73,0.00,,OVC065,0.06,VWS V14.01,2013-05-25 00:10:00,
2013-05-24 19:15:00,60.7,51.6,30.11,East,99,15.0,16.8,72,0.00,,OVC065,0.06,VWS V14.01,2013-05-25 00:15:00,
2013-05-24 19:20:00,60.5,52.2,30.12,East,94,11.0,16.8,74,0.00,,OVC065,0.06,VWS V14.01,2013-05-25 00:20:00,
2013-05-24 19:30:00,59.5,51.9,30.11,ESE,106,12.0,15.7,76,0.00,,OVC090,0.06,VWS V14.01,2013-05-25 00:30:00,
2013-05-24 19:35:00,59.5,51.9,30.11,ESE,112,8.0,14.7,76,0.00,,OVC090,0.06,VWS V14.01,2013-05-25 00:35:00,
2013-05-24 19:40:00,59.2,52.7,30.12,ESE,115,13.0,14.7,79,0.02,,OVC090,0.08,VWS V14.01,2013-05-25 00:40:00,
2013-05-24 19:45:00,58.7,52.6,30.12,ESE,114,11.0,14.7,80,0.03,,,0.09,VWS V14.01,2013-05-25 00:45:00,
2013-05-24 19:50:00,58.3,52.8,30.11,East,96,10.0,15.7,82,0.04,,,0.10,VWS V14.01,2013-05-25 00:50:00,
2013-05-24 19:55:00,58.0,52.5,30.11,ESE,114,12.0,16.8,82,0.04,,,0.10,VWS V14.01,2013-05-25 00:55:00,
2013-05-24 20:00:00,58.1,52.6,30.11,ESE,109,15.0,16.8,82,0.04,,,0.10,VWS V14.01,2013-05-25 01:00:00,
2013-05-24 20:10:00,58.0,52.9,30.10,ESE,107,10.0,16.8,83,0.04,,OVC080,0.10,VWS V14.01,2013-05-25 01:10:00,
2013-05-24 20:20:00,57.8,53.0,30.10,ESE,115,12.0,16.8,84,0.04,,OVC080,0.10,VWS V14.01,2013-05-25 01:20:00,
2013-05-24 20:25:00,57.5,53.0,30.10,East,101,13.0,15.7,85,0.04,,OVC080,0.10,VWS V14.01,2013-05-25 01:25:00,
2013-05-24 20:30:00,57.4,53.2,30.10,East,101,11.0,14.7,86,0.04,,OVC080,0.10,VWS V14.01,2013-05-25 01:30:00,
2013-05-24 20:35:00,57.3,53.2,30.10,East,88,8.0,15.7,86,0.04,,OVC080,0.10,VWS V14.01,2013-05-25 01:35:00,
2013-05-24 20:40:00,57.4,53.2,30.10,East,93,10.0,14.7,86,0.04,,OVC080,0.10,VWS V14.01,2013-05-25 01:40:00,
2013-05-24 20:45:00,57.6,53.1,30.11,ESE,103,15.0,16.8,85,0.02,,OVC080,0.10,VWS V14.01,2013-05-25 01:45:00,
2013-05-24 20:55:00,57.6,53.5,30.11,East,98,13.0,17.8,86,0.00,,OVC080,0.10,VWS V14.01,2013-05-25 01:55:00,
2013-05-24 21:05:00,57.4,53.9,30.11,ESE,102,12.0,15.7,88,0.00,,OVC070,0.10,VWS V14.01,2013-05-25 02:05:00,
2013-05-24 21:10:00,57.3,53.8,30.11,East,99,10.0,16.8,88,0.00,,OVC070,0.10,VWS V14.01,2013-05-25 02:10:00,
2013-05-24 21:20:00,57.1,54.2,30.11,East,101,12.0,14.7,90,0.01,,OVC070,0.11,VWS V14.01,2013-05-25 02:20:00,
2013-05-24 21:25:00,57.2,54.3,30.11,East,99,10.0,15.7,90,0.01,,OVC070,0.11,VWS V14.01,2013-05-25 02:25:00,
2013-05-24 21:30:00,57.3,54.1,30.11,East,86,11.0,16.8,89,0.01,,OVC070,0.11,VWS V14.01,2013-05-25 02:30:00,
2013-05-24 21:40:00,57.2,54.3,30.11,ESE,102,14.0,16.8,90,0.01,,OVC070,0.11,VWS V14.01,2013-05-25 02:40:00,
2013-05-24 21:50:00,57.3,54.1,30.12,East,98,9.0,16.8,89,0.01,,OVC070,0.11,VWS V14.01,2013-05-25 02:50:00,
2013-05-24 21:55:00,57.3,54.1,30.12,East,97,13.0,14.7,89,0.01,,OVC070,0.11,VWS V14.01,2013-05-25 02:55:00,
2013-05-24 22:05:00,57.1,53.9,30.13,East,88,11.0,14.7,89,0.01,,OVC070,0.11,VWS V14.01,2013-05-25 03:05:00,
2013-05-24 22:10:00,57.3,54.1,30.13,East,93,8.0,17.8,89,0.01,,OVC070,0.11,VWS V14.01,2013-05-25 03:10:00,
2013-05-24 22:15:00,57.3,53.8,30.14,East,94,8.0,15.7,88,0.01,,OVC070,0.11,VWS V14.01,2013-05-25 03:15:00,
2013-05-24 22:25:00,57.4,53.6,30.14,ESE,105,14.0,14.7,87,0.00,,OVC060,0.11,VWS V14.01,2013-05-25 03:25:00,
2013-05-24 22:30:00,57.5,53.3,30.14,ESE,102,10.0,18.9,86,0.00,,OVC060,0.11,VWS V14.01,2013-05-25 03:30:00,
2013-05-24 22:35:00,57.5,53.3,30.14,East,91,13.0,16.8,86,0.00,,OVC060,0.11,VWS V14.01,2013-05-25 03:35:00,
2013-05-24 22:40:00,57.3,53.2,30.14,ESE,109,15.0,17.8,86,0.00,,OVC060,0.11,VWS V14.01,2013-05-25 03:40:00,
2013-05-24 22:45:00,57.3,52.8,30.14,East,93,14.0,17.8,85,0.00,,OVC060,0.11,VWS V14.01,2013-05-25 03:45:00,
2013-05-24 22:55:00,57.0,52.9,30.14,East,99,14.0,17.8,86,0.00,,OVC060,0.11,VWS V14.01,2013-05-25 03:55:00,
2013-05-24 23:00:00,57.0,52.9,30.15,East,90,12.0,19.9,86,0.00,,OVC060,0.11,VWS V14.01,2013-05-25 04:00:00,
2013-05-24 23:05:00,56.9,53.1,30.14,East,92,18.0,21.0,87,0.00,,OVC060,0.11,VWS V14.01,2013-05-25 04:05:00,
2013-05-24 23:10:00,56.8,53.0,30.15,East,100,10.0,19.9,87,0.00,,OVC060,0.11,VWS V14.01,2013-05-25 04:10:00,
2013-05-24 23:15:00,56.6,52.8,30.15,East,98,11.0,17.8,87,0.00,,OVC060,0.11,VWS V14.01,2013-05-25 04:15:00,
2013-05-24 23:25:00,56.5,52.7,30.15,ESE,103,12.0,21.0,87,0.00,,OVC060,0.11,VWS V14.01,2013-05-25 04:25:00,
2013-05-24 23:30:00,56.4,52.6,30.15,ESE,107,14.0,18.9,87,0.00,,OVC060,0.11,VWS V14.01,2013-05-25 04:30:00,
2013-05-24 23:40:00,56.2,52.7,30.15,ESE,107,16.0,19.9,88,0.00,,OVC060,0.11,VWS V14.01,2013-05-25 04:40:00,
2013-05-24 23:45:00,56.2,52.4,30.14,East,96,17.0,24.1,87,0.00,,OVC060,0.11,VWS V14.01,2013-05-25 04:45:00,
2013-05-24 23:50:00,56.2,52.4,30.14,ESE,113,12.0,19.9,87,0.00,,OVC060,0.11,VWS V14.01,2013-05-25 04:50:00,
2013-05-24 23:55:00,56.1,52.3,30.14,ESE,109,15.0,21.0,87,0.00,,OVC060,0.11,VWS V14.01,2013-05-25 04:55:00,